Location: Potomac Astrometric Observatory
(39.0475°N, 77.2064°W)
Time: 19:08:58
(UTC-04:00)

Tiangong 2 - Visible Passes

Search period start: 20 March 2019 00:00
Search period end: 30 March 2019 00:00
Orbit: 379 x 390 km, 42.8° (Epoch: 20 March)

Date Brightness Start Highest point End Pass type
(mag) Time Alt. Az. Time Alt. Az. Time Alt. Az.
20 Mar 1.5 05:40:31 47° NNW 05:41:04 56° NNE 05:44:12 10° E visible
21 Mar 4.3 04:43:55 15° ENE 04:43:55 15° ENE 04:44:35 10° E visible
21 Mar 1.1 06:16:09 18° WNW 06:18:21 61° SSW 06:21:30 10° SE visible
22 Mar 1.9 05:19:39 48° E 05:19:39 48° E 05:22:04 10° ESE visible
23 Mar 1.8 05:55:32 32° SW 05:56:02 34° SSW 05:58:56 10° SE visible
24 Mar 3.9 04:59:18 13° SE 04:59:18 13° SE 04:59:44 10° SE visible
24 Mar 3.4 06:32:10 10° SW 06:32:53 11° SW 06:33:37 10° SSW visible
25 Mar 3.6 05:35:31 12° S 05:35:31 12° S 05:35:57 10° SSE visible
28 Mar 3.4 20:43:18 10° S 20:44:01 13° S 20:44:01 13° S visible
29 Mar 3.1 21:19:10 10° SW 21:20:23 21° SW 21:20:23 21° SW visible
